• MPC Preparation (Info)

  • MPEC 2022-Y202 : 2022 YD6

    The following Minor Planet Electronic Circular may be linked-to from your own Web pages, but must not otherwise be redistributed electronically.

    A form allowing access to any MPEC is at the bottom of this page.


    Read MPEC 2022-Y201 Read MPEC 2022-Y203


    M.P.E.C. 2022-Y202                            Issued 2022 December 28, 00:37 UT
    
         The Minor Planet Electronic Circulars contain information on unusual
             minor planets, routine data on comets and natural satellites,
             and occasional editorial announcements.  They are published
        on behalf of Division F of the International Astronomical Union by the
              Minor Planet Center, Smithsonian Astrophysical Observatory,
                              Cambridge, MA 02138, U.S.A.
    			  
                 Prepared using the Tamkin Foundation Computer Network
    
                                  MPC@CFA.HARVARD.EDU
                URL https://www.minorplanetcenter.net/    ISSN 1523-6714
    
                                    2022 YD6                                 
    
    
    Observations:
         K22Y06D*1C2022 12 26.31852306 49 14.776+14 06 20.12         20.74GVEY202G96
         K22Y06D 1C2022 12 26.32412806 49 12.752+14 05 47.51         20.10GVEY202G96
         K22Y06D 1C2022 12 26.32973806 49 10.722+14 05 14.68         21.55GVEY202G96
         K22Y06D 1C2022 12 26.33534706 49 08.710+14 04 41.63         20.11GVEY202G96
         K22Y06D mC2022 12 26.45207706 48 26.870+13 53 10.80               VEY202I52
         K22Y06D mC2022 12 26.45290806 48 26.550+13 53 06.50               VEY202I52
         K22Y06D mC2022 12 26.45374306 48 26.220+13 53 01.00               VEY202I52
         K22Y06D mC2022 12 26.45457406 48 25.960+13 52 56.70         21.45GVEY202I52
         K22Y06D 1C2022 12 27.42783506 42 50.728+12 14 25.01         20.39GVEY202G96
         K22Y06D 1C2022 12 27.43381306 42 48.463+12 13 47.17         20.54GVEY202G96
         K22Y06D 1C2022 12 27.43978406 42 46.152+12 13 07.90         20.80GVEY202G96
         K22Y06D 1C2022 12 27.44574806 42 44.024+12 12 31.54         20.44GVEY202G96
         K22Y06D KC2022 12 27.90527 06 40 04.69 +11 23 48.1                VEY202204
         K22Y06D KC2022 12 27.92787 06 39 56.13 +11 21 23.8          20.2 GVEY202204
         K22Y06D 1C2022 12 27.95806 06 39 44.36 +11 18 04.9          21.0 VXEY202033
         K22Y06D 1C2022 12 27.95915 06 39 43.96 +11 17 57.6          21.2 VXEY202033
         K22Y06D 1C2022 12 27.96025 06 39 43.54 +11 17 50.3          21.4 VXEY202033
         K22Y06D 1C2022 12 27.96227 06 39 42.76 +11 17 38.1          20.9 VXEY202033
         K22Y06D 1C2022 12 27.96361 06 39 42.25 +11 17 29.3          21.1 VXEY202033
    
    Observer details:
    033 Karl Schwarzschild Observatory, Tautenburg.  Observers S. Melnikov, C.
        Hoegner, F. Ludwig, B. Stecklum.  Measurer B. Stecklum.  1.34-m f/3
        Schmidt + CCD.
    204 Schiaparelli Observatory.  Observer L. Buzzi.  0.84-m f/3.5 reflector +
        CCD.
    G96 Mt. Lemmon Survey.  Observer J. K. Hogan.  Measurers E. J. Christensen, D.
        Fay, J. B. Fazekas, D. C. Fuls, A. R. Gibbs, A. D. Grauer, H. Groeller, J.
        K. Hogan, R. A. Kowalski, S. M. Larson, G. J. Leonard, D. Rankin, R. L.
        Seaman, A. Serrano, F. C. Shelly, K. W. Wierzchos.  1.5-m reflector + 10K
        CCD.
    I52 Steward Observatory, Mt. Lemmon Station.  Observer K. W. Wierzchos.
        Measurers E. J. Christensen, D. Fay, J. B. Fazekas, D. C. Fuls, A. R.
        Gibbs, A. D. Grauer, H. Groeller, J. K. Hogan, R. A. Kowalski, S. M.
        Larson, G. J. Leonard, D. Rankin, R. L. Seaman, A. Serrano, F. C. Shelly,
        K. W. Wierzchos.  1.0-m prime focus + CCD.
    
    Orbital elements:
    2022 YD6                                                 Earth MOID = 0.0906 AU
    Epoch 2023 Feb. 25.0 TT = JDT 2460000.5                 Veres                   
    M 315.98146              (2000.0)            P               Q                  
    n   1.03048338     Peri.  318.08832     -0.64156778     +0.73292342             
    a   0.9707530      Node   270.69573     -0.62983002     -0.67173800             
    e   0.2811150      Incl.   13.08062     -0.43784121     -0.10766300             
    P   0.96           H   24.61          G   0.15           U   7                  
    Residuals in seconds of arc
    221226 G96  0.1+  0.2-    221226 I52  0.1+  0.5+    221227 033  0.2-  0.1-
    221226 G96  0.0   0.0     221227 G96  0.4+  0.2+    221227 033  0.0   0.4-
    221226 G96  0.1-  0.0     221227 G96  0.2-  0.1+    221227 033  0.0   0.6-
    221226 G96  0.0   0.1-    221227 G96 (1.5-  1.6-)   221227 033  0.2-  0.2+
    221226 I52  0.4+  0.3-    221227 G96  0.1-  0.3-    221227 033  0.2-  0.0
    221226 I52  0.0   0.4+    221227 204  0.2-  0.1-
    221226 I52  0.4-  0.2-    221227 204  0.2+  0.1+
    
    Ephemeris:
    2022 YD6                 a,e,i = 0.97, 0.28, 13                  q = 0.6979
    Date    TT    R. A. (2000) Decl.     Delta      r    Elong.  Phase     V
    2022 11 28    07 57 37.3 +35 07 44   0.2925  1.1941   129.4    39.6    23.9
    ...
    2022 12 13    07 40 40.1 +28 31 53   0.1947  1.1540   147.8    27.0    22.6
    ...
    2022 12 21    07 15 05.5 +21 26 47   0.1511  1.1280   161.3    16.2    21.6
    ...
    2022 12 27    06 45 22.9 +12 58 56   0.1253  1.1064   168.2    10.5    21.0
    2022 12 28    06 39 29.1 +11 14 26   0.1218  1.1027   167.5    11.1    20.9
    2022 12 29    06 33 19.4 +09 24 03   0.1186  1.0989   166.1    12.4    20.9
    ...
    2023 01 04    05 51 13.4 -03 25 10   0.1052  1.0751   149.3    27.8    21.1
    ...
    2023 01 12    04 46 02.4 -21 41 49   0.1051  1.0410   120.7    54.3    21.8
    ...
    2023 01 27    02 50 17.9 -42 10 16   0.1417  0.9708    80.3    91.5    23.5
    
    M. P. C. Staff               (C) Copyright 2022 MPC           M.P.E.C. 2022-Y202
    


    Read MPEC 2022-Y201 Read MPEC 2022-Y203


    MPEC number:

    Enter an MPEC number in one of the following forms:

    • 1997-B01 (the full form)
    • J97B01 (the packed version of the full form)
    • B01 (the abbreviated form)